www.pogodaiklimat.ru

Погода и климат >> Архив погоды >> Россия >> Калининградская область >> Пионерский


ПОГОДА в Пионерском

  • Прогноз погоды в Пионерском
  • Монитор погоды в Пионерском

АРХИВ ПОГОДЫ в Пионерском

Время (UTC), дата Ветер
(напр.,м/с)
 
Видим.   Явления Облачность Т
(С)
Тd
(С)
f
(%)
Тe
(С)
Тes
(С)
Комфортность P
(гПа)
Po
(гПа)
Тmin
(С)
Tmax
(С)
R
(мм)
R24
(мм)
S
(см)
12 16.08 ЮЗ 2-5
{7}
10 км 8/8 600 м
[Sc]
+21.8 +12.4 55 +24 +26 комфорт 1014.1 1009.6
15 16.08 З 2-4
{7}
10 км 6/6 600 м
[Sc]
+22.8 +14.5 59 +26 +28 жарко 1014.2 1009.7
18 16.08 штиль 0-1
{5}
10 км 8/8 600 м
[Sc]
+17.8 +16.0 89 +18 +18 1015.0 1010.4 +24.4
21 16.08 штиль 0-1
{2}
10 км 9/9 600 м
[Sc]
+16.3 +15.4 94 +16 +16 1015.5 1010.9
00 17.08 штиль 0-1
{1}
4000 м дымка 9/9 600 м
[Sc]
+14.4 +14.1 98 +14 +14 1015.3 1010.6
03 17.08 ЮЗ 1-2
{2}
4000 м дымка 8/8 600 м
[Sc]
+13.8 +13.5 98 +14 +14 1015.5 1010.8 +13.2
06 17.08 ЮЗ 1-2
{2}
4000 м дымка ясно +18.1 +17.0 93 +19 +23 1015.3 1010.7 +13.2
09 17.08 ЮВ 2-4
{4}
10 км ясно +22.4 +14.2 60 +26 +36 жарко 1015.0 1010.5
12 17.08 ЮЗ 2-5
{8}
10 км 6/6 600 м
[Sc]
+24.9 +12.8 47 +27 +31 жарко 1014.1 1009.6
15 17.08 штиль 0-1
{6}
10 км 9/6 600 м
[Sc Ci fib]
+22.5 +15.1 63 +26 +28 жарко 1013.0 1008.5
18 17.08 штиль 0-1
{3}
10 км 10/10 600 м
[Sc]
+19.5 +16.0 80 +21 +21 комфорт 1012.7 1008.1 +25.2
21 17.08 ЮВ 1-2
{3}
10 км 10/10 600 м
[Sc]
+18.6 +14.9 79 +20 +20 1012.0 1007.4
00 18.08 Ю 1-2
{2}
10 км 9/9 600 м
[Sc]
+18.3 +13.4 73 +20 +20 1011.5 1006.9
03 18.08 ЮВ 1-2
{3}
10 км 10/10 600 м
[Sc]
+17.5 +12.7 73 +19 +19 1010.4 1005.8 +17.4
06 18.08 Ю 1-4
{4}
10 км 8/0
[Ci fib]
+20.6 +13.6 64 +24 +27 комфорт 1009.8 1005.3 +16.4
09 18.08 Ю 2-5
{6}
10 км 6/0
[Ac trans Ci fib]
+24.8 +13.6 50 +27 +35 жарко 1009.3 1004.8
12 18.08 ЮЗ 3-6
{6}
10 км 10/10 600 м
[Sc]
+25.3 +13.6 48 +27 +27 жарко 1009.2 1004.7
15 18.08 ЮВ 1-3
{6}
10 км 10/10 600 м
[Sc]
+25.1 +14.6 52 +28 +28 жарко 1008.3 1003.8
18 18.08 Ю 2-6
{6}
10 км 10/8 600 м
[Sc Ac und]
+23.2 +13.5 54 +26 +26 жарко 1007.5 1003.0 +27.1
21 18.08 Ю 1-3
{5}
10 км 10/10 600 м
[Sc]
+22.2 +14.3 61 +25 +25 комфорт 1006.7 1002.1
00 19.08 ЮЗ 2-4
{4}
10 км 10/10 600 м
[Sc]
+20.4 +15.8 75 +24 +24 комфорт 1007.4 1002.9
03 19.08 З 2-5
{5}
10 км 8/8 600 м
[Sc]
+19.8 +16.7 82 +23 +23 комфорт 1008.7 1004.2 +19.3
06 19.08 З 4-7
{8}
10 км 8/4 600 м
[Sc Ci fib]
+19.9 +15.7 77 +22 +23 комфорт 1011.3 1006.7 +18.7
09 19.08 З 3-6
{8}
10 км 6/4 600 м
[Sc Ac trans]
+20.9 +14.6 67 +24 +28 комфорт 1013.6 1009.1
12 19.08 З 2-5
{6}
10 км 9/3 600 м
[Sc Ac trans]
+21.0 +14.3 66 +25 +28 комфорт 1015.5 1010.9
15 19.08 штиль 0-1
{5}
10 км 9/4 600 м
[Sc Ac trans Ci fib]
+20.6 +14.4 68 +23 +25 комфорт 1016.4 1011.8
18 19.08 В 1-1
{1}
10 км 4/4 600 м
[Sc]
+17.4 +14.5 83 +18 +18 1017.2 1012.6 +23.3
21 19.08 ЮВ 1-2
{3}
10 км 3/3 600 м
[Sc]
+16.2 +14.4 89 +17 +17 1017.9 1013.3
00 20.08 Ю 1-2
{3}
4000 м дымка ясно +14.7 +14.2 97 +15 +15 1018.9 1014.2
03 20.08 ЮЗ 1-1
{2}
4000 м дымка 8/3 600 м
[Sc Ci fib]
+13.1 +12.8 98 +13 +13 1020.1 1015.4 +12.9
06 20.08 ЮЗ 1-1
{3}
4000 м дымка 6/6 600 м
[Sc]
+17.2 +16.4 95 +18 +19 1021.1 1016.5 +12.7
09 20.08 ЮЗ 1-2
{3}
10 км 9/9 600 м
[Sc]
+21.7 +14.4 63 +25 +26 комфорт 1022.2 1017.6
12 20.08 З 1-4
{6}
10 км 8/5 600 м
[Sc Ci fib]
+24.5 +10.1 40 +25 +31 комфорт 1022.5 1018.0
15 20.08 СЗ 1-2
{5}
10 км 8/0
[Ci fib]
+23.1 +12.4 51 +26 +29 жарко 1023.1 1018.5
18 20.08 штиль 0-1
{3}
10 км 10/10 600 м
[Sc]
+17.4 +14.0 80 +17 +17 1023.5 1018.9 +24.9
21 20.08 ЮВ 1-2
{3}
10 км 6/0
[Ci fib]
+16.8 +12.5 76 +18 +18 1023.5 1018.8
00 21.08 ЮВ 1-2
{3}
10 км 10/10 600 м
[Sc]
+16.6 +11.9 74 +17 +17 1022.9 1018.2
03 21.08 ЮВ 2-2
{2}
10 км слаб. ливневой дождь 10/10 600 м
[Cb calv]
+15.2 +12.9 86 +15 +15 1023.4 1018.7 +14.7 1
06 21.08 Ю 1-4
{4}
10 км слаб. ливневой дождь 10/10 600 м
[Cb calv]
+15.5 +12.8 84 +16 +16 1023.4 1018.7 +14.7 1
09 21.08 ЮЗ 2-4
{4}
10 км {ливн. осадки} 10/10 600 м
[Sc]
+17.9 +13.5 75 +18 +18 1024.2 1019.6
12 21.08 З 4-7
{8}
10 км {ливн. осадки} 10/10 600 м
[Sc]
+19.4 +15.2 77 +21 +21 комфорт 1024.3 1019.7
15 21.08 З 3-6
{8}
10 км 8/8 600 м
[Sc]
+20.2 +13.6 66 +23 +23 комфорт 1025.5 1020.9 1
18 21.08 З 2-4
{7}
10 км 8/8 600 м
[Sc]
+17.3 +12.6 74 +18 +18 1026.6 1021.9 +22.2 0.0
21 21.08 ЮЗ 1-2
{6}
10 км 3/3 600 м
[Sc]
+14.1 +10.5 79 +14 +14 1027.4 1022.7
00 22.08 ЮЗ 1-2
{3}
10 км 3/3 600 м
[Sc]
+12.1 +10.2 88 +12 +12 1028.2 1023.4
03 22.08 ЮЗ 1-3
{4}
10 км {ливн. осадки} 9/9 600 м
[Sc]
+13.9 +12.8 93 +14 +14 1028.4 1023.7 +11.9 0.4
06 22.08 З 1-2
{4}
10 км {ливн. осадки} 8/8 600 м
[Sc]
+17.4 +11.6 69 +18 +19 1029.7 1025.0 +11.9 0.4
09 22.08 З 2-4
{5}
10 км 3/3 600 м
[Sc]
+20.3 +10.1 52 +22 +29 комфорт 1030.5 1025.9
12 22.08 СЗ 1-3
{4}
10 км 3/1 600 м
[Cu med, cong Ci fib]
+21.1 +10.7 51 +23 +33 комфорт 1030.3 1025.7
15 22.08 штиль 0-1
{4}
10 км 3/0
[Ci fib]
+20.2 +10.9 55 +22 +26 комфорт 1029.5 1024.9
18 22.08 штиль 0-1
{2}
10 км 8/0
[Ci fib]
+14.9 +10.9 77 +15 +15 1029.1 1024.3 +21.7
21 22.08 ЮВ 1-2
{3}
10 км 8/0
[Ci fib]
+13.2 +10.4 83 +13 +13 1028.9 1024.2
00 23.08 Ю 1-3
{4}
10 км 4/0
[Ci fib]
+14.1 +11.1 82 +14 +14 1028.8 1024.1
03 23.08 ЮЗ 2-3
{4}
10 км 3/3 600 м
[Sc]
+12.9 +11.0 88 +12 +12 1028.6 1023.8 +12.7
06 23.08 ЮЗ 2-5
{5}
10 км 3/0
[Ci fib]
+17.9 +12.6 71 +18 +21 1028.9 1024.2 +12.7
09 23.08 ЮЗ 4-7
{7}
10 км ясно +22.8 +10.1 45 +25 +31 комфорт 1029.0 1024.4

 

Местоположение метеостанции Пионерский (Калининградская область, Россия): широта 54.95 долгота 20.21 высота над уровнем моря 28 м.

В архиве по умолчанию представлена погода в Пионерском за последнюю неделю. Архивные данные за месяц целиком и за предыдущие месяцы, начиная с января 2011 года, Вы можете получить, выбрав интересующий диапазон дат из раскрывающегося списка и нажав кнопку "Ввод!".


*Определитесь, кто Вы:
робот инопланетянин человек

Внимание! Время в таблицах - всемирное. Для получения местного времени необходимо прибавить поправку, которая равна 2 ч.

Смотрите также архив погоды в соседних городах и на ближайших метеорологических станциях:

Погода в Рыбном Порту (Калининградская область, Россия) (32 км)
Погода в Калининграде (Калининградская область, Россия) (38 км)
Погода в Балтийске (Калининградская область, Россия) (40 км)
Погода в Рыбачем (Калининградская область, Россия) (46 км)
Погода в Мамоново (Калининградская область, Россия) (56 км)
Погода в Ниде (Литва) (66 км)
Погода в Шилуте (Литва) (91 км)
Погода в Железнодорожном (Калининградская область, Россия) (95 км)
Погода в Хеле (Польша) (97 км)
Погода в Эльблонге (Польша) (100 км)

Пояснения к столбцам:

Ветер - указаны скорость ветра в м/с - средняя за 10 мин, порывы в срок и между сроками (в фигурных скобках) и направление, откуда дует ветер: С - северный, СВ - северо-восточный, В - восточный, ЮВ - юго-восточный, Ю - южный, ЮЗ - юго-западный, З - западный, СЗ - северо-западный.
Видимость - горизонтальная дальность видимости в метрах или километрах. При видимости от 1 до 10 км при отсутствии осадков обычно наблюдается дымка, при ухудшении видимости до 1 км и менее - туман. В сухую погоду видимость может ухудшаться дымом, пылью или мглою.
Явления - указаны атмосферные явления, наблюдавшиеся в срок или в последний час перед сроком; фигурными скобками обозначены явления, наблюдавшиеся между сроками (за 1-3 часа до срока); квадратными скобками обозначены град или гололедные отложения с указанием их диаметра в мм.
Облачность - указаны через наклонную черту общая и нижняя облачность в баллах и высота нижней границы облаков в метрах; квадратными скобками обозначены формы облаков: Ci - перистые, Cs - перисто-слоистые, Cc - перисто-кучевые, Ac - высококучевые, As - высокослоистые, Sc - слоисто-кучевые, Ns - слоисто-дождевые, Cu - кучевые, Cb - кучево-дождевые. Подробнее классификацию облаков см. в Атласе облаков (PDF).
T - Температура воздуха - температура, измеренная на высоте 2 м над землей.
Td - Температура точки росы - температура, при понижении до которой содержащийся в воздухе водяной пар достигнет насыщения.
f - Относительная влажность воздуха - влажноcть воздуха, измеренная на высоте 2 м над землей.
Te - Эффективная температура - температура, которую ощущает одетый по сезону человек в тени. Характеристика душности погоды. При расчете учитывается влияние влажности воздуха и скорости ветра на теплоощущения человека.
Tes - Эффективная температура на солнце - температура, которую ощущает человек, с поправкой на солнечный нагрев. Характеристика знойности погоды. Зависит от высоты солнца над горизонтом, облачности и скорости ветра. Ночью, в пасмурную погоду, а также при ветре 12 м/с и более поправка равна нулю.
P - Атмосферное давление - приведенное к уровню моря атмосферное давление.
Po - Атмосферное давление - измеренное на уровне метеостанции атмосферное давление.
Tmin - Минимальная температура - минимум температуры воздуха на высоте 2 м над землей.
Tmax - Максимальная температура - максимум температуры воздуха на высоте 2 м над землей.
R - Количество осадков - Количество выпавших осадков за период времени, мм. При наведении курсора мыши на число - период времени, за который выпало указанное количество осадков.
R24 - Количество осадков - Количество выпавших осадков за 24 часа, мм.
S - Снежный покров - Высота снежного покрова, см. При наведении курсора мыши на число - состояние снежного покрова и степень покрытия местности в баллах.